| time (UTC) | temp F | wind direction | speed MPH | gust MPH | rain 1hr in | rain 24hr in | rain mn in | humidity % | barometer mb |
| 20260509234431 | -90 | 166 | 0.0 | 0.0 | 0.00 | 0.18 | 0.18 | ||
| 20260509233959 | -90 | 174 | 0.0 | 2.0 | 0.00 | 0.18 | 0.18 | ||
| 20260509233426 | -90 | 174 | 0.0 | 2.0 | 0.00 | 0.18 | 0.18 | ||
| 20260509232930 | -90 | 164 | 0.0 | 3.0 | 0.00 | 0.18 | 0.18 | ||
| 20260509232439 | -90 | 162 | 0.0 | 5.0 | 0.00 | 0.18 | 0.18 | ||
| 20260509231927 | -90 | 226 | 0.0 | 5.0 | 0.00 | 0.18 | 0.18 | ||
| 20260509231436 | -90 | 164 | 0.0 | 0.0 | 0.00 | 0.18 | 0.18 | ||
| 20260509230943 | -90 | 179 | 0.0 | 7.0 | 0.00 | 0.18 | 0.18 | ||
| 20260509230432 | -90 | 199 | 2.0 | 8.0 | 0.00 | 0.18 | 0.18 | ||
| 20260509225939 | -90 | 217 | 2.0 | 4.0 | 0.00 | 0.18 | 0.18 | ||
| 20260509225427 | -90 | 222 | 0.0 | 4.0 | 0.00 | 0.18 | 0.18 | ||
| 20260509224935 | -90 | 218 | 1.0 | 4.0 | 0.00 | 0.18 | 0.18 | ||
| 20260509224443 | -90 | 228 | 2.0 | 10.0 | 0.00 | 0.18 | 0.18 | ||
| 20260509223930 | -90 | 212 | 2.0 | 10.0 | 0.00 | 0.18 | 0.18 | ||
| 20260509223438 | -90 | 223 | 1.0 | 4.0 | 0.00 | 0.18 | 0.18 | ||
| 20260509222928 | -90 | 218 | 1.0 | 6.0 | 0.00 | 0.18 | 0.18 | ||
| 20260509222451 | -90 | 175 | 0.0 | 6.0 | 0.00 | 0.18 | 0.18 | ||
| 20260509221937 | -90 | 161 | 0.0 | 5.0 | 0.00 | 0.18 | 0.18 | ||
| 20260509221425 | -90 | 174 | 2.0 | 5.0 | 0.00 | 0.18 | 0.18 | ||
| 20260509220933 | -90 | 208 | 2.0 | 4.0 | 0.00 | 0.18 | 0.18 | ||
| 20260509220440 | -90 | 218 | 0.0 | 4.0 | 0.00 | 0.18 | 0.18 | ||
| 20260509215929 | -90 | 188 | 0.0 | 4.0 | 0.00 | 0.18 | 0.18 | ||
| 20260509215434 | -90 | 172 | 1.0 | 5.0 | 0.00 | 0.18 | 0.18 | ||
| 20260509214940 | -90 | 195 | 0.0 | 2.0 | 0.00 | 0.18 | 0.18 | ||
| 20260509214429 | -90 | 196 | 0.0 | 2.0 | 0.00 | 0.18 | 0.18 | ||
| 20260509213933 | -90 | 159 | 0.0 | 5.0 | 0.00 | 0.18 | 0.18 | ||
| 20260509213421 | -90 | 164 | 1.0 | 5.0 | 0.00 | 0.18 | 0.18 | ||
| 20260509212955 | -90 | 231 | 1.0 | 5.0 | 0.00 | 0.18 | 0.18 | ||
| 20260509212422 | -90 | 180 | 0.0 | 5.0 | 0.00 | 0.18 | 0.18 | ||
| 20260509211956 | -90 | 233 | 1.0 | 3.0 | 0.00 | 0.18 | 0.18 | ||
| 20260509211445 | -90 | 169 | 0.0 | 5.0 | 0.00 | 0.18 | 0.18 | ||
| 20260509210947 | -90 | 204 | 2.0 | 5.0 | 0.00 | 0.18 | 0.18 | ||
| 20260509210433 | -90 | 174 | 1.0 | 5.0 | 0.00 | 0.18 | 0.18 | ||
| 20260509205941 | -90 | 159 | 0.0 | 5.0 | 0.00 | 0.18 | 0.18 | ||
| 20260509205449 | -90 | 170 | 0.0 | 6.0 | 0.00 | 0.18 | 0.18 | ||
| 20260509204932 | -90 | 162 | 0.0 | 6.0 | 0.00 | 0.18 | 0.18 | ||
| 20260509204420 | -90 | 183 | 0.0 | 5.0 | 0.00 | 0.18 | 0.18 | ||
| 20260509203956 | -90 | 199 | 2.0 | 5.0 | 0.00 | 0.18 | 0.18 | ||
| 20260509203421 | -90 | 237 | 2.0 | 5.0 | 0.00 | 0.18 | 0.18 | ||
| 20260509202954 | -90 | 213 | 0.0 | 4.0 | 0.00 | 0.18 | 0.18 | ||
| 20260509202441 | -90 | 183 | 0.0 | 4.0 | 0.00 | 0.18 | 0.18 | ||
| 20260509201928 | -90 | 184 | 0.0 | 6.0 | 0.00 | 0.18 | 0.18 | ||
| 20260509201505 | -90 | 213 | 2.0 | 6.0 | 0.00 | 0.18 | 0.18 | ||
| 20260509200929 | -90 | 185 | 0.0 | 4.0 | 0.00 | 0.18 | 0.18 | ||
| 20260509200432 | -90 | 234 | 1.0 | 7.0 | 0.00 | 0.18 | 0.18 | ||
| 20260509195940 | -90 | 191 | 1.0 | 7.0 | 0.00 | 0.18 | 0.18 | ||
| 20260509195428 | -90 | 177 | 1.0 | 5.0 | 0.00 | 0.18 | 0.18 | ||
| 20260509194954 | -90 | 174 | 0.0 | 5.0 | 0.00 | 0.18 | 0.18 | ||
| 20260509194501 | -90 | 214 | 1.0 | 5.0 | 0.00 | 0.18 | 0.18 | ||
| 20260509193928 | -90 | 162 | 0.0 | 2.0 | 0.00 | 0.18 | 0.18 | ||
| 20260509193435 | -90 | 158 | 0.0 | 4.0 | 0.00 | 0.18 | 0.18 | ||
| 20260509192922 | -90 | 168 | 0.0 | 3.0 | 0.00 | 0.18 | 0.18 | ||
| 20260509192457 | -90 | 170 | 0.0 | 4.0 | 0.00 | 0.18 | 0.18 | ||
| 20260509191921 | -90 | 235 | 1.0 | 4.0 | 0.00 | 0.18 | 0.18 | ||
| 20260509191457 | -90 | 206 | 0.0 | 4.0 | 0.00 | 0.18 | 0.18 | ||
| 20260509190942 | -90 | 210 | 1.0 | 4.0 | 0.00 | 0.18 | 0.18 | ||
| 20260509190428 | -90 | 180 | 0.0 | 1.0 | 0.00 | 0.18 | 0.18 | ||
| 20260509185949 | -90 | 188 | 0.0 | 1.0 | 0.00 | 0.18 | 0.18 | ||
| 20260509185435 | -90 | 187 | 0.0 | 1.0 | 0.00 | 0.18 | 0.18 | ||
| 20260509184923 | -90 | 189 | 0.0 | 0.0 | 0.00 | 0.18 | 0.18 | ||
| 20260509184432 | -90 | 189 | 0.0 | 5.0 | 0.00 | 0.18 | 0.18 | ||
| 20260509183938 | -90 | 226 | 1.0 | 5.0 | 0.00 | 0.18 | 0.18 | ||
| 20260509183427 | -90 | 226 | 0.0 | 3.0 | 0.00 | 0.18 | 0.18 | ||
| 20260509182951 | -90 | 229 | 0.0 | 4.0 | 0.00 | 0.18 | 0.18 | ||
| 20260509182437 | -90 | 229 | 1.0 | 4.0 | 0.00 | 0.18 | 0.18 | ||
| 20260509181944 | -90 | 177 | 0.0 | 0.0 | 0.00 | 0.18 | 0.18 | ||
| 20260509181432 | -90 | 179 | 0.0 | 0.0 | 0.01 | 0.18 | 0.18 | ||
| 20260509180939 | -90 | 179 | 0.0 | 2.0 | 0.01 | 0.18 | 0.18 | ||
| 20260509180447 | -90 | 214 | 0.0 | 3.0 | 0.01 | 0.18 | 0.18 | ||
| 20260509175933 | -90 | 177 | 0.0 | 3.0 | 0.01 | 0.18 | 0.18 | ||
| 20260509175441 | -90 | 169 | 0.0 | 1.0 | 0.01 | 0.18 | 0.18 | ||
| 20260509174929 | -90 | 164 | 0.0 | 3.0 | 0.01 | 0.18 | 0.18 | ||
| 20260509174437 | -90 | 214 | 0.0 | 3.0 | 0.01 | 0.18 | 0.18 | ||
| 20260509173939 | -90 | 196 | 0.0 | 2.0 | 0.01 | 0.18 | 0.18 | ||
| 20260509173426 | -90 | 202 | 0.0 | 2.0 | 0.01 | 0.18 | 0.18 | ||
| 20260509172933 | -90 | 217 | 0.0 | 3.0 | 0.01 | 0.18 | 0.18 | ||
| 20260509172500 | -90 | 233 | 0.0 | 3.0 | 0.01 | 0.18 | 0.18 | ||
| 20260509171946 | -90 | 230 | 0.0 | 3.0 | 0.01 | 0.18 | 0.18 | ||
| 20260509171431 | -90 | 222 | 0.0 | 0.0 | 0.00 | 0.17 | 0.17 | ||
| 20260509170938 | -90 | 222 | 0.0 | 0.0 | 0.00 | 0.17 | 0.17 | ||
| 20260509170446 | -90 | 222 | 0.0 | 0.0 | 0.01 | 0.17 | 0.17 | ||
| 20260509165933 | -90 | 222 | 0.0 | 0.0 | 0.01 | 0.17 | 0.17 | ||
| 20260509165440 | -90 | 222 | 0.0 | 0.0 | 0.01 | 0.17 | 0.17 | ||
| 20260509164928 | -90 | 222 | 0.0 | 0.0 | 0.02 | 0.17 | 0.17 | ||
| 20260509164435 | -90 | 222 | 0.0 | 0.0 | 0.02 | 0.17 | 0.17 | ||
| 20260509163942 | -90 | 222 | 0.0 | 0.0 | 0.02 | 0.17 | 0.17 | ||
| 20260509163450 | -90 | 222 | 0.0 | 0.0 | 0.02 | 0.17 | 0.17 | ||
| 20260509162936 | -90 | 222 | 0.0 | 0.0 | 0.03 | 0.17 | 0.17 | ||
| 20260509162438 | -90 | 209 | 0.0 | 0.0 | 0.03 | 0.17 | 0.17 | ||
| 20260509161927 | -90 | 204 | 0.0 | 3.0 | 0.04 | 0.17 | 0.17 | ||
| 20260509161434 | -90 | 192 | 0.0 | 4.0 | 0.04 | 0.17 | 0.17 | ||
| 20260509160941 | -90 | 195 | 0.0 | 4.0 | 0.04 | 0.22 | 0.17 | ||
| 20260509160427 | -90 | 169 | 0.0 | 7.0 | 0.03 | 0.21 | 0.16 | ||
| 20260509155933 | -90 | 166 | 0.0 | 7.0 | 0.04 | 0.21 | 0.16 | ||
| 20260509155440 | -90 | 147 | 0.0 | 1.0 | 0.04 | 0.21 | 0.16 | ||
| 20260509154948 | -90 | 214 | 0.0 | 0.0 | 0.04 | 0.20 | 0.15 | ||
| 20260509154502 | -90 | 217 | 0.0 | 2.0 | 0.04 | 0.20 | 0.15 | ||
| 20260509153928 | -90 | 217 | 0.0 | 2.0 | 0.04 | 0.20 | 0.15 | ||
| 20260509153434 | -90 | 241 | 0.0 | 3.0 | 0.05 | 0.20 | 0.15 | ||
| 20260509152943 | -90 | 241 | 0.0 | 3.0 | 0.04 | 0.19 | 0.14 | ||
| 20260509152429 | -90 | 247 | 0.0 | 2.0 | 0.05 | 0.19 | 0.14 | ||
| 20260509152001 | -90 | 248 | 0.0 | 3.0 | 0.04 | 0.18 | 0.13 | ||
| 20260509151429 | -90 | 250 | 0.0 | 3.0 | 0.05 | 0.18 | 0.13 | ||
| 20260509150935 | -90 | 236 | 1.0 | 3.0 | 0.05 | 0.22 | 0.13 | ||
| 20260509150438 | -90 | 228 | 0.0 | 3.0 | 0.04 | 0.21 | 0.12 | ||
| 20260509145923 | -90 | 274 | 0.0 | 3.0 | 0.05 | 0.21 | 0.12 | ||
| 20260509145430 | -90 | 293 | 0.0 | 0.0 | 0.05 | 0.21 | 0.12 | ||
| 20260509144958 | -90 | 303 | 0.0 | 2.0 | 0.04 | 0.20 | 0.11 | ||
| 20260509144447 | -90 | 305 | 0.0 | 2.0 | 0.05 | 0.20 | 0.11 | ||
| 20260509143929 | -90 | 326 | 0.0 | 0.0 | 0.04 | 0.19 | 0.10 | ||
| 20260509143436 | -90 | 326 | 0.0 | 0.0 | 0.04 | 0.19 | 0.10 | ||
| 20260509142943 | -90 | 327 | 0.0 | 0.0 | 0.05 | 0.19 | 0.10 | ||
| 20260509142430 | -90 | 332 | 0.0 | 0.0 | 0.04 | 0.18 | 0.09 | ||
| 20260509141933 | -90 | 334 | 0.0 | 0.0 | 0.04 | 0.18 | 0.09 | ||
| 20260509141443 | -90 | 334 | 0.0 | 0.0 | 0.03 | 0.17 | 0.08 | ||
| 20260509140929 | -90 | 334 | 0.0 | 0.0 | 0.04 | 0.17 | 0.08 | ||
| 20260509140435 | -90 | 335 | 0.0 | 0.0 | 0.03 | 0.16 | 0.07 | ||
| 20260509135943 | -90 | 335 | 0.0 | 0.0 | 0.04 | 0.16 | 0.07 | ||
| 20260509135450 | -90 | 335 | 0.0 | 0.0 | 0.04 | 0.16 | 0.07 | ||
| 20260509134934 | -90 | 335 | 0.0 | 0.0 | 0.04 | 0.16 | 0.07 | ||
| 20260509134442 | -90 | 335 | 0.0 | 0.0 | 0.03 | 0.15 | 0.06 | ||
| 20260509133928 | -90 | 335 | 0.0 | 0.0 | 0.04 | 0.15 | 0.06 | ||
| 20260509133434 | -90 | 334 | 0.0 | 0.0 | 0.03 | 0.14 | 0.05 | ||
| 20260509132941 | -90 | 333 | 0.0 | 0.0 | 0.03 | 0.14 | 0.05 | ||
| 20260509132449 | -90 | 333 | 0.0 | 0.0 | 0.03 | 0.14 | 0.05 | ||
| 20260509131932 | -90 | 332 | 0.0 | 0.0 | 0.04 | 0.14 | 0.05 | ||
| 20260509131438 | -90 | 332 | 0.0 | 1.0 | 0.03 | 0.13 | 0.04 | ||
| 20260509130944 | -90 | 332 | 0.0 | 1.0 | 0.03 | 0.13 | 0.04 | ||
| 20260509130450 | -90 | 332 | 0.0 | 0.0 | 0.03 | 0.13 | 0.04 | ||
| 20260509125936 | -90 | 332 | 0.0 | 0.0 | 0.02 | 0.12 | 0.03 | ||
| 20260509125442 | -90 | 332 | 0.0 | 0.0 | 0.02 | 0.12 | 0.03 | ||
| 20260509124929 | -90 | 332 | 0.0 | 0.0 | 0.02 | 0.12 | 0.03 | ||
| 20260509124436 | -90 | 332 | 0.0 | 0.0 | 0.03 | 0.12 | 0.03 | ||
| 20260509123941 | -90 | 332 | 0.0 | 0.0 | 0.02 | 0.11 | 0.02 | ||
| 20260509123428 | 0 | 332 | 0.0 | 0.0 | 0.02 | 0.11 | 0.02 | ||
| 20260509122932 | 0 | 332 | 0.0 | 0.0 | 0.02 | 0.11 | 0.02 | ||
| 20260509122438 | 0 | 332 | 0.0 | 0.0 | 0.02 | 0.11 | 0.02 | ||
| 20260509121927 | 0 | 332 | 0.0 | 0.0 | 0.01 | 0.10 | 0.01 | ||
| 20260509121434 | 0 | 332 | 0.0 | 0.0 | 0.01 | 0.10 | 0.01 | ||
| 20260509121001 | 0 | 332 | 0.0 | 0.0 | 0.01 | 0.10 | 0.01 | ||
| 20260509120427 | 0 | 332 | 0.0 | 0.0 | 0.01 | 0.10 | 0.01 | ||
| 20260509115935 | 0 | 332 | 0.0 | 0.0 | 0.01 | 0.10 | 0.01 | ||
| 20260509115442 | 0 | 332 | 0.0 | 0.0 | 0.01 | 0.10 | 0.01 | ||
| 20260509114929 | 0 | 332 | 0.0 | 0.0 | 0.01 | 0.10 | 0.01 | ||
| 20260509114437 | 0 | 332 | 0.0 | 0.0 | 0.00 | 0.09 | 0.00 | ||
| 20260509113944 | 0 | 332 | 0.0 | 0.0 | 0.00 | 0.09 | 0.00 | ||
| 20260509113451 | 0 | 332 | 0.0 | 0.0 | 0.00 | 0.09 | 0.00 | ||
| 20260509112937 | 0 | 332 | 0.0 | 0.0 | 0.00 | 0.09 | 0.00 | ||
| 20260509112444 | 0 | 332 | 0.0 | 0.0 | 0.00 | 0.09 | 0.00 | ||
| 20260509111931 | 0 | 332 | 0.0 | 0.0 | 0.00 | 0.09 | 0.00 | ||
| 20260509111440 | 0 | 332 | 0.0 | 0.0 | 0.00 | 0.09 | 0.00 | ||
| 20260509110927 | 0 | 332 | 0.0 | 0.0 | 0.00 | 0.09 | 0.00 | ||
| 20260509110429 | 0 | 332 | 0.0 | 0.0 | 0.00 | 0.09 | 0.00 | ||
| 20260509105936 | 0 | 332 | 0.0 | 0.0 | 0.00 | 0.09 | 0.00 | ||
| 20260509105425 | 0 | 332 | 0.0 | 0.0 | 0.00 | 0.09 | 0.00 | ||
| 20260509104932 | 0 | 332 | 0.0 | 0.0 | 0.00 | 0.09 | 0.00 | ||
| 20260509104441 | 0 | 332 | 0.0 | 0.0 | 0.00 | 0.09 | 0.00 | ||
| 20260509103927 | 0 | 332 | 0.0 | 0.0 | 0.00 | 0.09 | 0.00 | ||
| 20260509103433 | 0 | 332 | 0.0 | 0.0 | 0.00 | 0.09 | 0.00 | ||
| 20260509102942 | 0 | 332 | 0.0 | 0.0 | 0.00 | 0.09 | 0.00 | ||
| 20260509102429 | 0 | 332 | 0.0 | 0.0 | 0.00 | 0.09 | 0.00 | ||
| 20260509101935 | 0 | 333 | 0.0 | 0.0 | 0.00 | 0.09 | 0.00 | ||
| 20260509101443 | 0 | 333 | 0.0 | 0.0 | 0.00 | 0.09 | 0.00 | ||
| 20260509100929 | 0 | 333 | 0.0 | 0.0 | 0.00 | 0.09 | 0.00 | ||
| 20260509100436 | 0 | 334 | 0.0 | 0.0 | 0.00 | 0.09 | 0.00 | ||
| 20260509095943 | 0 | 334 | 0.0 | 0.0 | 0.00 | 0.09 | 0.00 | ||
| 20260509095430 | 0 | 334 | 0.0 | 0.0 | 0.00 | 0.09 | 0.00 | ||
| 20260509094939 | 0 | 335 | 0.0 | 0.0 | 0.00 | 0.09 | 0.00 | ||
| 20260509094447 | 0 | 335 | 0.0 | 0.0 | 0.00 | 0.09 | 0.00 | ||
| 20260509093949 | 0 | 335 | 0.0 | 0.0 | 0.00 | 0.09 | 0.00 | ||
| 20260509093456 | 0 | 335 | 0.0 | 0.0 | 0.00 | 0.09 | 0.00 | ||
| 20260509092941 | 0 | 335 | 0.0 | 0.0 | 0.00 | 0.09 | 0.00 | ||
| 20260509092428 | 0 | 335 | 0.0 | 0.0 | 0.00 | 0.09 | 0.00 | ||
| 20260509091933 | 0 | 335 | 0.0 | 0.0 | 0.00 | 0.09 | 0.00 | ||
| 20260509091442 | 0 | 335 | 0.0 | 0.0 | 0.00 | 0.09 | 0.00 | ||
| 20260509090927 | 0 | 335 | 0.0 | 0.0 | 0.00 | 0.10 | 0.00 | ||
| 20260509090436 | 0 | 335 | 0.0 | 0.0 | 0.00 | 0.10 | 0.00 | ||
| 20260509085943 | 0 | 335 | 0.0 | 0.0 | 0.00 | 0.10 | 0.00 | ||
| 20260509085429 | 0 | 335 | 0.0 | 0.0 | 0.00 | 0.10 | 0.00 | ||
| 20260509084934 | 0 | 335 | 0.0 | 0.0 | 0.00 | 0.10 | 0.00 | ||
| 20260509084443 | 0 | 335 | 0.0 | 0.0 | 0.00 | 0.10 | 0.00 | ||
| 20260509083929 | 0 | 335 | 0.0 | 0.0 | 0.00 | 0.10 | 0.00 | ||
| 20260509083437 | 0 | 335 | 0.0 | 0.0 | 0.00 | 0.10 | 0.00 | ||
| 20260509082943 | 0 | 335 | 0.0 | 0.0 | 0.00 | 0.10 | 0.00 | ||
| 20260509082430 | 0 | 335 | 0.0 | 0.0 | 0.00 | 0.10 | 0.00 | ||
| 20260509081954 | 0 | 335 | 0.0 | 0.0 | 0.00 | 0.10 | 0.00 | ||
| 20260509081442 | 0 | 335 | 0.0 | 0.0 | 0.00 | 0.10 | 0.00 | ||
| 20260509080928 | 0 | 335 | 0.0 | 0.0 | 0.00 | 0.10 | 0.00 | ||
| 20260509080436 | 0 | 335 | 0.0 | 0.0 | 0.00 | 0.10 | 0.00 | ||
| 20260509075924 | 0 | 335 | 0.0 | 0.0 | 0.00 | 0.10 | 0.00 | ||
| 20260509075433 | 0 | 335 | 0.0 | 0.0 | 0.00 | 0.10 | 0.00 | ||
| 20260509074940 | 0 | 335 | 0.0 | 0.0 | 0.00 | 0.10 | 0.00 | ||
| 20260509074429 | 0 | 335 | 0.0 | 0.0 | 0.00 | 0.10 | 0.00 | ||
| 20260509073934 | 0 | 335 | 0.0 | 0.0 | 0.00 | 0.10 | 0.00 | ||
| 20260509073442 | 0 | 335 | 0.0 | 0.0 | 0.00 | 0.10 | 0.00 | ||
| 20260509072928 | 0 | 335 | 0.0 | 0.0 | 0.00 | 0.10 | 0.00 | ||
| 20260509072434 | 0 | 335 | 0.0 | 0.0 | 0.00 | 0.10 | 0.00 | ||
| 20260509071941 | 0 | 335 | 0.0 | 0.0 | 0.00 | 0.10 | 0.00 | ||
| 20260509071430 | 0 | 335 | 0.0 | 0.0 | 0.00 | 0.10 | 0.00 | ||
| 20260509071003 | 0 | 335 | 0.0 | 0.0 | 0.00 | 0.10 | 0.00 | ||
| 20260509070429 | 0 | 335 | 0.0 | 0.0 | 0.00 | 0.10 | 0.00 | ||
| 20260509070003 | 0 | 335 | 0.0 | 0.0 | 0.00 | 0.10 | 0.00 | ||
| 20260509065429 | 0 | 335 | 0.0 | 0.0 | 0.00 | 0.10 | 0.00 | ||
| 20260509064931 | 0 | 335 | 0.0 | 0.0 | 0.00 | 0.10 | 0.00 | ||
| 20260509064442 | 0 | 335 | 0.0 | 0.0 | 0.00 | 0.10 | 0.00 | ||
| 20260509063947 | 0 | 335 | 0.0 | 0.0 | 0.00 | 0.10 | 0.00 | ||
| 20260509063429 | 0 | 335 | 0.0 | 0.0 | 0.00 | 0.10 | 0.00 | ||
| 20260509062956 | 0 | 335 | 0.0 | 0.0 | 0.00 | 0.10 | 0.00 | ||
| 20260509062441 | 0 | 335 | 0.0 | 0.0 | 0.00 | 0.10 | 0.00 | ||
| 20260509061928 | 0 | 335 | 0.0 | 0.0 | 0.00 | 0.10 | 0.00 | ||
| 20260509061437 | -90 | 335 | 0.0 | 0.0 | 0.00 | 0.10 | 0.00 | ||
| 20260509060945 | 0 | 335 | 0.0 | 0.0 | 0.00 | 0.10 | 0.00 | ||
| 20260509060431 | 0 | 335 | 0.0 | 0.0 | 0.00 | 0.10 | 0.00 | ||
| 20260509055938 | 0 | 335 | 0.0 | 0.0 | 0.00 | 0.10 | 0.00 | ||
| 20260509055423 | 0 | 335 | 0.0 | 0.0 | 0.00 | 0.10 | 0.00 | ||
| 20260509054959 | 0 | 335 | 0.0 | 0.0 | 0.00 | 0.10 | 0.00 | ||
| 20260509054444 | 0 | 335 | 0.0 | 0.0 | 0.00 | 0.10 | 0.00 | ||
| 20260509053931 | 0 | 335 | 0.0 | 0.0 | 0.00 | 0.10 | 0.00 | ||
| 20260509053434 | 0 | 335 | 0.0 | 0.0 | 0.00 | 0.10 | 0.00 | ||
| 20260509052941 | 0 | 335 | 0.0 | 0.0 | 0.00 | 0.10 | 0.00 | ||
| 20260509052429 | 0 | 335 | 0.0 | 0.0 | 0.00 | 0.10 | 0.00 | ||
| 20260509051956 | 0 | 335 | 0.0 | 0.0 | 0.00 | 0.10 | 0.00 | ||
| 20260509051425 | 0 | 335 | 0.0 | 0.0 | 0.00 | 0.10 | 0.00 | ||
| 20260509050950 | 0 | 335 | 0.0 | 0.0 | 0.00 | 0.10 | 0.00 | ||
| 20260509050435 | 0 | 335 | 0.0 | 0.0 | 0.00 | 0.10 | 0.00 | ||
| 20260509045944 | 0 | 335 | 0.0 | 0.0 | 0.00 | 0.10 | 0.00 | ||
| 20260509045450 | 0 | 335 | 0.0 | 0.0 | 0.00 | 0.10 | 0.00 | ||
| 20260509044934 | 0 | 335 | 0.0 | 0.0 | 0.00 | 0.10 | 0.00 | ||
| 20260509044442 | 0 | 335 | 0.0 | 0.0 | 0.00 | 0.10 | 0.00 | ||
| 20260509043927 | 0 | 335 | 0.0 | 0.0 | 0.00 | 0.10 | 0.00 | ||
| 20260509043435 | 0 | 335 | 0.0 | 0.0 | 0.00 | 0.10 | 0.00 | ||
| 20260509042942 | 0 | 335 | 0.0 | 0.0 | 0.00 | 0.10 | 0.00 | ||
| 20260509042429 | -90 | 335 | 0.0 | 0.0 | 0.00 | 0.10 | 0.00 | ||
| 20260509041954 | 0 | 335 | 0.0 | 0.0 | 0.00 | 0.10 | 0.00 | ||
| 20260509041441 | 0 | 335 | 0.0 | 0.0 | 0.00 | 0.10 | 0.00 | ||
| 20260509040928 | 0 | 335 | 0.0 | 0.0 | 0.00 | 0.10 | 0.10 | ||
| 20260509040457 | 0 | 335 | 0.0 | 0.0 | 0.00 | 0.10 | 0.10 | ||
| 20260509035938 | 0 | 335 | 0.0 | 0.0 | 0.00 | 0.10 | 0.10 | ||
| 20260509035444 | 0 | 335 | 0.0 | 0.0 | 0.00 | 0.10 | 0.10 | ||
| 20260509034931 | 0 | 335 | 0.0 | 0.0 | 0.00 | 0.10 | 0.10 | ||
| 20260509034440 | 0 | 335 | 0.0 | 0.0 | 0.00 | 0.10 | 0.10 | ||
| 20260509033945 | 0 | 335 | 0.0 | 0.0 | 0.00 | 0.10 | 0.10 | ||
| 20260509033452 | 0 | 336 | 0.0 | 0.0 | 0.00 | 0.10 | 0.10 | ||
| 20260509032938 | 0 | 336 | 0.0 | 0.0 | 0.00 | 0.10 | 0.10 | ||
| 20260509032445 | 0 | 336 | 0.0 | 0.0 | 0.00 | 0.10 | 0.10 | ||
| 20260509031952 | 0 | 336 | 0.0 | 0.0 | 0.00 | 0.10 | 0.10 | ||
| 20260509031454 | 0 | 336 | 0.0 | 0.0 | 0.00 | 0.10 | 0.10 | ||
| 20260509030940 | 0 | 336 | 0.0 | 0.0 | 0.00 | 0.10 | 0.10 | ||
| 20260509030428 | 0 | 336 | 0.0 | 0.0 | 0.00 | 0.10 | 0.10 | ||
| 20260509025935 | 0 | 336 | 0.0 | 0.0 | 0.00 | 0.10 | 0.10 | ||
| 20260509025442 | 0 | 336 | 0.0 | 0.0 | 0.00 | 0.10 | 0.10 | ||
| 20260509024928 | 0 | 336 | 0.0 | 0.0 | 0.00 | 0.10 | 0.10 | ||
| 20260509024435 | 0 | 336 | 0.0 | 0.0 | 0.00 | 0.10 | 0.10 | ||
| 20260509023943 | 0 | 336 | 0.0 | 0.0 | 0.00 | 0.10 | 0.10 | ||
| 20260509023450 | 0 | 336 | 0.0 | 0.0 | 0.00 | 0.10 | 0.10 | ||
| 20260509022936 | 0 | 336 | 0.0 | 0.0 | 0.00 | 0.10 | 0.10 | ||
| 20260509022444 | 0 | 336 | 0.0 | 0.0 | 0.00 | 0.10 | 0.10 | ||
| 20260509021930 | 0 | 336 | 0.0 | 0.0 | 0.00 | 0.10 | 0.10 | ||
| 20260509021440 | 0 | 336 | 0.0 | 0.0 | 0.00 | 0.10 | 0.10 | ||
| 20260509020928 | 0 | 336 | 0.0 | 0.0 | 0.00 | 0.10 | 0.10 | ||
| 20260509020503 | 0 | 336 | 0.0 | 0.0 | 0.00 | 0.10 | 0.10 | ||
| 20260509015946 | 0 | 336 | 0.0 | 0.0 | 0.00 | 0.10 | 0.10 | ||
| 20260509015430 | 0 | 336 | 0.0 | 0.0 | 0.00 | 0.10 | 0.10 | ||
| 20260509014936 | 0 | 336 | 0.0 | 0.0 | 0.00 | 0.10 | 0.10 | ||
| 20260509014424 | 0 | 336 | 0.0 | 0.0 | 0.00 | 0.10 | 0.10 | ||
| 20260509013928 | 0 | 336 | 0.0 | 0.0 | 0.00 | 0.10 | 0.10 | ||
| 20260509013436 | 0 | 336 | 0.0 | 0.0 | 0.00 | 0.10 | 0.10 | ||
| 20260509012945 | 0 | 336 | 0.0 | 0.0 | 0.00 | 0.10 | 0.10 | ||
| 20260509012457 | 0 | 336 | 0.0 | 0.0 | 0.00 | 0.10 | 0.10 | ||
| 20260509012002 | 0 | 336 | 0.0 | 0.0 | 0.00 | 0.10 | 0.10 | ||
| 20260509011450 | 0 | 336 | 0.0 | 0.0 | 0.00 | 0.10 | 0.10 | ||
| 20260509010936 | 0 | 336 | 0.0 | 0.0 | 0.00 | 0.10 | 0.10 | ||
| 20260509010443 | 0 | 336 | 0.0 | 0.0 | 0.00 | 0.10 | 0.10 | ||
| 20260509005925 | 0 | 336 | 0.0 | 0.0 | 0.00 | 0.10 | 0.10 | ||
| 20260509005452 | 0 | 336 | 0.0 | 0.0 | 0.00 | 0.10 | 0.10 | ||
| 20260509004938 | 0 | 336 | 0.0 | 0.0 | 0.00 | 0.10 | 0.10 | ||
| 20260509004427 | 0 | 336 | 0.0 | 0.0 | 0.00 | 0.10 | 0.10 | ||
| 20260509003933 | 0 | 336 | 0.0 | 0.0 | 0.00 | 0.10 | 0.10 | ||
| 20260509003437 | 0 | 336 | 0.0 | 0.0 | 0.00 | 0.10 | 0.10 | ||
| 20260509002945 | 0 | 336 | 0.0 | 0.0 | 0.00 | 0.10 | 0.10 | ||
| 20260509002433 | 0 | 336 | 0.0 | 0.0 | 0.00 | 0.10 | 0.10 | ||
| 20260509001940 | 0 | 336 | 0.0 | 0.0 | 0.00 | 0.10 | 0.10 | ||
| 20260509001430 | 0 | 336 | 0.0 | 0.0 | 0.00 | 0.10 | 0.10 | ||
| 20260509000935 | 0 | 336 | 0.0 | 0.0 | 0.00 | 0.10 | 0.10 | ||
| 20260509000443 | 0 | 336 | 0.0 | 0.0 | 0.00 | 0.10 | 0.10 | ||
| 20260508235957 | 0 | 336 | 0.0 | 0.0 | 0.00 | 0.10 | 0.10 | ||
| 20260508235459 | 0 | 336 | 0.0 | 0.0 | 0.00 | 0.10 | 0.10 | ||
| 20260508234927 | 0 | 336 | 0.0 | 0.0 | 0.00 | 0.10 | 0.10 |